Wetterdaten: Montag, 20.05.2013
Datum Zeit Temperatur Luftfeuchte Luftdruck Regen Wind Richtung Richtung Taupunkt Windchill Windben
20.05.2013 00:00 7,4 C 93 % 1013,7 hPa 0,0 l/m 4,7 km/h (1 Bft) S 180 6,3 C 7,4 C 6,3 km/h (2 Bft)
20.05.2013 00:05 7,5 C 93 % 1013,9 hPa 0,0 l/m 6,0 km/h (2 Bft) W-SW 247 6,4 C 7,1 C 10,1 km/h (2 Bft)
20.05.2013 00:10 7,4 C 92 % 1013,9 hPa 0,0 l/m 7,4 km/h (2 Bft) S 180 6,2 C 5,9 C 8,2 km/h (2 Bft)
20.05.2013 00:15 7,3 C 91 % 1013,9 hPa 0,0 l/m 7,9 km/h (2 Bft) S-SW 202 5,9 C 5,3 C 10,0 km/h (2 Bft)
20.05.2013 00:20 7,1 C 90 % 1013,9 hPa 0,0 l/m 7,2 km/h (2 Bft) S 180 5,6 C 5,7 C 11,6 km/h (2 Bft)
20.05.2013 00:25 7,1 C 90 % 1013,6 hPa 0,0 l/m 7,1 km/h (2 Bft) S 180 5,6 C 5,8 C 14,2 km/h (3 Bft)
20.05.2013 00:30 6,8 C 90 % 1013,6 hPa 0,0 l/m 6,4 km/h (2 Bft) O-SO 112 5,3 C 6,2 C 6,9 km/h (2 Bft)
20.05.2013 00:35 6,6 C 90 % 1013,6 hPa 0,0 l/m 4,3 km/h (1 Bft) O-SO 112 5,1 C 6,7 C 0,0 km/h (0 Bft)
20.05.2013 00:40 6,6 C 90 % 1013,6 hPa 0,0 l/m 4,5 km/h (1 Bft) SO 135 5,1 C 6,4 C 4,0 km/h (1 Bft)
20.05.2013 00:45 6,5 C 90 % 1013,8 hPa 0,0 l/m 4,3 km/h (1 Bft) N 360 5,0 C 6,3 C 2,1 km/h (1 Bft)
20.05.2013 00:50 6,4 C 90 % 1013,8 hPa 0,0 l/m 4,2 km/h (1 Bft) S 180 4,9 C 6,2 C 8,0 km/h (2 Bft)
20.05.2013 00:55 6,1 C 90 % 1013,8 hPa 0,0 l/m 3,9 km/h (1 Bft) S-SO 157 4,6 C 6,2 C 4,5 km/h (1 Bft)
20.05.2013 01:00 5,9 C 91 % 1013,8 hPa 0,0 l/m 3,2 km/h (1 Bft) S-SO 157 4,5 C 6,3 C 0,0 km/h (0 Bft)
20.05.2013 01:05 5,7 C 91 % 1013,9 hPa 0,0 l/m 1,9 km/h (1 Bft) NO 45 4,3 C 6,0 C 1,9 km/h (1 Bft)
20.05.2013 01:10 5,8 C 91 % 1013,9 hPa 0,0 l/m 1,8 km/h (1 Bft) NO 45 4,4 C 5,8 C 1,9 km/h (1 Bft)
20.05.2013 01:15 5,8 C 91 % 1013,9 hPa 0,0 l/m 2,4 km/h (1 Bft) N 360 4,4 C 5,5 C 3,1 km/h (1 Bft)
20.05.2013 01:20 5,5 C 91 % 1013,9 hPa 0,0 l/m 1,8 km/h (1 Bft) NO 45 4,2 C 5,3 C 0,0 km/h (0 Bft)
20.05.2013 01:25 5,4 C 91 % 1014,1 hPa 0,0 l/m 1,8 km/h (1 Bft) NO 45 4,1 C 5,1 C 2,7 km/h (1 Bft)
20.05.2013 01:30 5,3 C 91 % 1014,1 hPa 0,0 l/m 1,3 km/h (1 Bft) O 90 4,0 C 5,0 C 0,0 km/h (0 Bft)
20.05.2013 01:35 5,1 C 91 % 1014,1 hPa 0,0 l/m 0,8 km/h (0 Bft) NO 45 3,8 C 4,7 C 0,0 km/h (0 Bft)
20.05.2013 01:40 5,3 C 92 % 1014,1 hPa 0,0 l/m 0,8 km/h (0 Bft) O-SO 112 4,1 C 4,7 C 0,0 km/h (0 Bft)
20.05.2013 01:45 5,3 C 92 % 1014,3 hPa 0,0 l/m 1,0 km/h (0 Bft) NO 45 4,1 C 4,6 C 1,8 km/h (1 Bft)
20.05.2013 01:50 5,3 C 92 % 1014,3 hPa 0,0 l/m 1,1 km/h (1 Bft) S 180 4,1 C 4,7 C 0,0 km/h (0 Bft)
20.05.2013 01:55 5,0 C 92 % 1014,3 hPa 0,0 l/m 1,0 km/h (0 Bft) NO 45 3,8 C 4,6 C 0,0 km/h (0 Bft)
20.05.2013 02:00 5,0 C 93 % 1014,3 hPa 0,0 l/m 0,2 km/h (0 Bft) W-SW 247 4,0 C 4,6 C 0,0 km/h (0 Bft)
20.05.2013 02:05 4,7 C 93 % 1014,1 hPa 0,0 l/m 0,2 km/h (0 Bft) S-SW 202 3,7 C 4,4 C 0,0 km/h (0 Bft)
20.05.2013 02:10 4,6 C 93 % 1014,1 hPa 0,0 l/m 0,0 km/h (0 Bft) O-NO 67 3,6 C 4,0 C 0,0 km/h (0 Bft)
20.05.2013 02:15 4,5 C 93 % 1014,1 hPa 0,0 l/m 0,0 km/h (0 Bft) N-NO 22 3,5 C 3,9 C 0,0 km/h (0 Bft)
20.05.2013 02:20 4,2 C 93 % 1014,1 hPa 0,0 l/m 0,0 km/h (0 Bft) N-NO 22 3,2 C 3,7 C 0,0 km/h (0 Bft)
20.05.2013 02:25 4,5 C 93 % 1014,1 hPa 0,0 l/m 0,6 km/h (0 Bft) O 90 3,5 C 3,5 C 3,5 km/h (1 Bft)
20.05.2013 02:30 4,4 C 94 % 1014,1 hPa 0,0 l/m 1,1 km/h (1 Bft) N-NO 22 3,5 C 3,6 C 0,0 km/h (0 Bft)
20.05.2013 02:35 4,4 C 94 % 1014,1 hPa 0,0 l/m 1,0 km/h (0 Bft) O-SO 112 3,5 C 3,5 C 0,0 km/h (0 Bft)
20.05.2013 02:40 4,1 C 94 % 1014,1 hPa 0,0 l/m 0,3 km/h (0 Bft) O-SO 112 3,2 C 3,2 C 2,6 km/h (1 Bft)
20.05.2013 02:45 4,2 C 94 % 1014,0 hPa 0,0 l/m 0,3 km/h (0 Bft) N-NO 22 3,3 C 3,1 C 0,0 km/h (0 Bft)
20.05.2013 02:50 3,5 C 94 % 1014,0 hPa 0,0 l/m 0,3 km/h (0 Bft) NO 45 2,6 C 2,9 C 2,1 km/h (1 Bft)
20.05.2013 02:55 3,7 C 94 % 1014,0 hPa 0,0 l/m 0,8 km/h (0 Bft) O-NO 67 2,8 C 2,8 C 1,8 km/h (1 Bft)
20.05.2013 03:00 3,9 C 94 % 1014,0 hPa 0,0 l/m 1,6 km/h (1 Bft) S 180 3,0 C 3,2 C 0,0 km/h (0 Bft)
20.05.2013 03:05 3,9 C 94 % 1014,2 hPa 0,0 l/m 1,9 km/h (1 Bft) NO 45 3,0 C 3,1 C 4,3 km/h (1 Bft)
20.05.2013 03:10 3,7 C 94 % 1014,2 hPa 0,0 l/m 1,4 km/h (1 Bft) W-SW 247 2,8 C 3,2 C 0,0 km/h (0 Bft)
20.05.2013 03:15 3,3 C 94 % 1014,2 hPa 0,0 l/m 0,8 km/h (0 Bft) SW 225 2,4 C 2,9 C 0,0 km/h (0 Bft)
20.05.2013 03:20 3,2 C 94 % 1014,2 hPa 0,0 l/m 0,0 km/h (0 Bft) S-SW 202 2,3 C 2,6 C 0,0 km/h (0 Bft)
20.05.2013 03:25 3,0 C 94 % 1014,2 hPa 0,0 l/m 0,0 km/h (0 Bft) W-NW 292 2,1 C 2,5 C 0,0 km/h (0 Bft)
20.05.2013 03:30 2,8 C 95 % 1014,2 hPa 0,0 l/m 0,0 km/h (0 Bft) NW 315 2,1 C 2,2 C 0,0 km/h (0 Bft)
20.05.2013 03:35 2,6 C 95 % 1014,2 hPa 0,0 l/m 0,0 km/h (0 Bft) O-NO 67 1,9 C 2,1 C 0,0 km/h (0 Bft)
20.05.2013 03:40 2,6 C 95 % 1014,2 hPa 0,0 l/m 0,2 km/h (0 Bft) N-NO 22 1,9 C 2,0 C 0,0 km/h (0 Bft)
20.05.2013 03:45 3,4 C 94 % 1014,3 hPa 0,0 l/m 0,8 km/h (0 Bft) O-NO 67 2,5 C 2,1 C 4,2 km/h (1 Bft)
20.05.2013 03:50 3,5 C 95 % 1014,3 hPa 0,0 l/m 2,6 km/h (1 Bft) O 90 2,8 C 2,7 C 3,7 km/h (1 Bft)
20.05.2013 03:55 3,7 C 95 % 1014,3 hPa 0,0 l/m 3,2 km/h (1 Bft) O-SO 112 3,0 C 2,6 C 3,1 km/h (1 Bft)
20.05.2013 04:00 3,7 C 95 % 1014,3 hPa 0,0 l/m 2,4 km/h (1 Bft) O 90 3,0 C 3,1 C 2,3 km/h (1 Bft)
20.05.2013 04:05 3,9 C 95 % 1014,1 hPa 0,0 l/m 2,4 km/h (1 Bft) NO 45 3,2 C 3,2 C 2,4 km/h (1 Bft)
20.05.2013 04:10 4,2 C 95 % 1014,1 hPa 0,0 l/m 2,3 km/h (1 Bft) O 90 3,5 C 3,4 C 3,4 km/h (1 Bft)
20.05.2013 04:15 4,5 C 95 % 1014,1 hPa 0,0 l/m 2,3 km/h (1 Bft) NO 45 3,8 C 3,6 C 2,9 km/h (1 Bft)
20.05.2013 04:20 4,6 C 95 % 1014,1 hPa 0,0 l/m 3,1 km/h (1 Bft) O 90 3,9 C 3,6 C 4,7 km/h (1 Bft)
20.05.2013 04:25 4,5 C 95 % 1013,9 hPa 0,0 l/m 3,4 km/h (1 Bft) O 90 3,8 C 3,6 C 5,5 km/h (1 Bft)
20.05.2013 04:30 4,4 C 95 % 1013,9 hPa 0,0 l/m 3,2 km/h (1 Bft) NO 45 3,7 C 3,7 C 3,1 km/h (1 Bft)
20.05.2013 04:35 4,1 C 95 % 1013,9 hPa 0,0 l/m 2,4 km/h (1 Bft) SO 135 3,4 C 3,8 C 0,0 km/h (0 Bft)
20.05.2013 04:40 3,8 C 95 % 1013,9 hPa 0,0 l/m 0,8 km/h (0 Bft) N 360 3,1 C 3,5 C 0,0 km/h (0 Bft)
20.05.2013 04:45 3,7 C 95 % 1013,9 hPa 0,0 l/m 0,2 km/h (0 Bft) N-NO 22 3,0 C 3,3 C 0,0 km/h (0 Bft)
20.05.2013 04:50 3,5 C 95 % 1013,9 hPa 0,0 l/m 0,5 km/h (0 Bft) O-SO 112 2,8 C 3,0 C 2,6 km/h (1 Bft)
20.05.2013 04:55 3,8 C 95 % 1013,9 hPa 0,0 l/m 1,6 km/h (1 Bft) NO 45 3,1 C 3,0 C 3,7 km/h (1 Bft)
20.05.2013 05:00 3,5 C 95 % 1013,9 hPa 0,0 l/m 1,8 km/h (1 Bft) S 180 2,8 C 3,1 C 0,0 km/h (0 Bft)
20.05.2013 05:05 3,3 C 95 % 1014,0 hPa 0,0 l/m 1,0 km/h (0 Bft) NO 45 2,6 C 2,8 C 2,3 km/h (1 Bft)
20.05.2013 05:10 3,7 C 95 % 1014,0 hPa 0,0 l/m 1,3 km/h (1 Bft) O-NO 67 3,0 C 3,0 C 0,0 km/h (0 Bft)
20.05.2013 05:15 3,4 C 95 % 1014,0 hPa 0,0 l/m 1,0 km/h (0 Bft) O 90 2,7 C 3,0 C 0,0 km/h (0 Bft)
20.05.2013 05:20 3,3 C 95 % 1014,0 hPa 0,0 l/m 0,0 km/h (0 Bft) NO 45 2,6 C 2,8 C 0,0 km/h (0 Bft)
20.05.2013 05:25 3,7 C 95 % 1013,9 hPa 0,0 l/m 0,3 km/h (0 Bft) O-SO 112 3,0 C 2,7 C 2,9 km/h (1 Bft)
20.05.2013 05:30 3,3 C 95 % 1013,9 hPa 0,0 l/m 1,4 km/h (1 Bft) S-SW 202 2,6 C 3,0 C 1,8 km/h (1 Bft)
20.05.2013 05:35 3,1 C 95 % 1013,9 hPa 0,0 l/m 1,4 km/h (1 Bft) NO 45 2,4 C 2,7 C 3,2 km/h (1 Bft)
20.05.2013 05:40 3,0 C 95 % 1013,9 hPa 0,0 l/m 0,8 km/h (0 Bft) O-NO 67 2,3 C 2,5 C 2,1 km/h (1 Bft)
20.05.2013 05:45 3,6 C 96 % 1014,1 hPa 0,0 l/m 1,3 km/h (1 Bft) O-SO 112 3,0 C 2,7 C 1,6 km/h (1 Bft)
20.05.2013 05:50 3,8 C 96 % 1014,1 hPa 0,0 l/m 1,1 km/h (1 Bft) O-SO 112 3,2 C 3,2 C 0,0 km/h (0 Bft)
20.05.2013 05:55 3,7 C 96 % 1014,1 hPa 0,0 l/m 0,5 km/h (0 Bft) O-SO 112 3,1 C 3,3 C 0,0 km/h (0 Bft)
20.05.2013 06:00 4,0 C 95 % 1014,1 hPa 0,0 l/m 1,6 km/h (1 Bft) NO 45 3,3 C 3,6 C 5,0 km/h (1 Bft)
20.05.2013 06:05 4,3 C 96 % 1014,5 hPa 0,0 l/m 1,8 km/h (1 Bft) O-SO 112 3,7 C 3,9 C 1,6 km/h (1 Bft)
20.05.2013 06:10 4,8 C 96 % 1014,5 hPa 0,0 l/m 2,3 km/h (1 Bft) NO 45 4,2 C 4,1 C 3,4 km/h (1 Bft)
20.05.2013 06:15 4,8 C 96 % 1014,5 hPa 0,0 l/m 2,4 km/h (1 Bft) O-NO 67 4,2 C 4,2 C 2,9 km/h (1 Bft)
20.05.2013 06:20 5,0 C 95 % 1014,5 hPa 0,0 l/m 2,4 km/h (1 Bft) O 90 4,3 C 4,2 C 3,7 km/h (1 Bft)
20.05.2013 06:25 5,0 C 95 % 1014,8 hPa 0,0 l/m 2,6 km/h (1 Bft) NO 45 4,3 C 4,3 C 2,7 km/h (1 Bft)
20.05.2013 06:30 5,0 C 95 % 1014,8 hPa 0,0 l/m 2,4 km/h (1 Bft) W 270 4,3 C 4,4 C 0,0 km/h (0 Bft)
20.05.2013 06:35 4,7 C 95 % 1014,8 hPa 0,0 l/m 1,4 km/h (1 Bft) NO 45 4,0 C 4,4 C 0,0 km/h (0 Bft)
20.05.2013 06:40 4,7 C 95 % 1014,8 hPa 0,0 l/m 0,5 km/h (0 Bft) NW 315 4,0 C 4,3 C 0,0 km/h (0 Bft)
20.05.2013 06:45 4,9 C 95 % 1015,1 hPa 0,0 l/m 0,3 km/h (0 Bft) NW 315 4,2 C 4,4 C 0,0 km/h (0 Bft)
20.05.2013 06:50 5,2 C 95 % 1015,1 hPa 0,0 l/m 0,2 km/h (0 Bft) N-NW 337 4,5 C 4,5 C 0,0 km/h (0 Bft)
20.05.2013 06:55 5,4 C 95 % 1015,1 hPa 0,0 l/m 0,2 km/h (0 Bft) S-SW 202 4,7 C 4,8 C 0,0 km/h (0 Bft)
20.05.2013 07:00 5,4 C 95 % 1015,1 hPa 0,0 l/m 0,0 km/h (0 Bft) S-SW 202 4,7 C 4,9 C 0,0 km/h (0 Bft)
20.05.2013 07:05 5,7 C 95 % 1015,3 hPa 0,0 l/m 0,0 km/h (0 Bft) S 180 5,0 C 5,0 C 0,0 km/h (0 Bft)
20.05.2013 07:10 6,1 C 94 % 1015,3 hPa 0,0 l/m 0,2 km/h (0 Bft) O-NO 67 5,2 C 5,1 C 1,8 km/h (1 Bft)
20.05.2013 07:15 7,1 C 93 % 1015,3 hPa 0,0 l/m 0,5 km/h (0 Bft) O-SO 112 6,0 C 5,7 C 0,0 km/h (0 Bft)
20.05.2013 07:20 11,4 C 90 % 1015,3 hPa 0,0 l/m 0,8 km/h (0 Bft) O-SO 112 9,8 C 8,2 C 2,7 km/h (1 Bft)
20.05.2013 07:25 12,3 C 84 % 1015,2 hPa 0,0 l/m 1,0 km/h (0 Bft) S-SW 202 9,7 C 10,0 C 5,3 km/h (1 Bft)
20.05.2013 07:30 12,0 C 81 % 1015,2 hPa 0,0 l/m 3,1 km/h (1 Bft) S 180 8,8 C 11,3 C 4,8 km/h (1 Bft)
20.05.2013 07:35 10,6 C 81 % 1015,2 hPa 0,0 l/m 3,7 km/h (1 Bft) O-SO 112 7,5 C 11,4 C 3,1 km/h (1 Bft)
20.05.2013 07:40 8,9 C 84 % 1015,2 hPa 0,0 l/m 2,4 km/h (1 Bft) O-NO 67 6,3 C 10,2 C 2,6 km/h (1 Bft)
20.05.2013 07:45 8,8 C 86 % 1015,4 hPa 0,0 l/m 1,4 km/h (1 Bft) S-SW 202 6,6 C 9,7 C 0,0 km/h (0 Bft)
20.05.2013 07:50 8,6 C 86 % 1015,4 hPa 0,0 l/m 1,0 km/h (0 Bft) W-SW 247 6,4 C 9,4 C 3,1 km/h (1 Bft)
20.05.2013 07:55 8,7 C 86 % 1015,4 hPa 0,0 l/m 0,5 km/h (0 Bft) S-SO 157 6,5 C 9,3 C 0,0 km/h (0 Bft)
20.05.2013 08:00 8,8 C 87 % 1015,4 hPa 0,0 l/m 0,5 km/h (0 Bft) SO 135 6,8 C 9,2 C 0,0 km/h (0 Bft)
20.05.2013 08:05 8,8 C 88 % 1015,5 hPa 0,0 l/m 0,5 km/h (0 Bft) S-SO 157 6,9 C 9,2 C 0,0 km/h (0 Bft)
20.05.2013 08:10 8,9 C 88 % 1015,5 hPa 0,0 l/m 0,3 km/h (0 Bft) NO 45 7,0 C 9,4 C 0,0 km/h (0 Bft)
20.05.2013 08:15 9,2 C 88 % 1015,5 hPa 0,0 l/m 0,3 km/h (0 Bft) S-SO 157 7,3 C 9,5 C 0,0 km/h (0 Bft)
20.05.2013 08:20 9,3 C 87 % 1015,5 hPa 0,0 l/m 1,1 km/h (1 Bft) SO 135 7,2 C 9,7 C 3,4 km/h (1 Bft)
20.05.2013 08:25 9,3 C 86 % 1016,1 hPa 0,0 l/m 1,9 km/h (1 Bft) SO 135 7,1 C 9,8 C 5,8 km/h (2 Bft)
20.05.2013 08:30 9,5 C 86 % 1016,1 hPa 0,0 l/m 2,3 km/h (1 Bft) S-SW 202 7,3 C 9,9 C 0,0 km/h (0 Bft)
20.05.2013 08:35 9,7 C 86 % 1016,1 hPa 0,0 l/m 1,4 km/h (1 Bft) SW 225 7,5 C 10,0 C 2,9 km/h (1 Bft)
20.05.2013 08:40 9,8 C 85 % 1016,1 hPa 0,0 l/m 1,3 km/h (1 Bft) S 180 7,4 C 10,2 C 2,4 km/h (1 Bft)
20.05.2013 08:45 9,9 C 84 % 1015,8 hPa 0,0 l/m 1,8 km/h (1 Bft) S-SO 157 7,3 C 10,4 C 1,8 km/h (1 Bft)
20.05.2013 08:50 10,0 C 83 % 1015,8 hPa 0,0 l/m 1,9 km/h (1 Bft) S-SO 157 7,2 C 10,7 C 0,0 km/h (0 Bft)
20.05.2013 08:55 10,0 C 80 % 1015,8 hPa 0,0 l/m 2,3 km/h (1 Bft) W-SW 247 6,7 C 10,7 C 0,0 km/h (0 Bft)
20.05.2013 09:00 10,0 C 77 % 1015,8 hPa 0,0 l/m 2,7 km/h (1 Bft) S 180 6,2 C 10,8 C 3,4 km/h (1 Bft)
20.05.2013 09:05 10,3 C 78 % 1015,8 hPa 0,0 l/m 2,4 km/h (1 Bft) S-SW 202 6,6 C 10,9 C 2,7 km/h (1 Bft)
20.05.2013 09:10 10,6 C 77 % 1015,8 hPa 0,0 l/m 2,7 km/h (1 Bft) S 180 6,7 C 11,1 C 4,2 km/h (1 Bft)
20.05.2013 09:15 10,6 C 76 % 1015,8 hPa 0,0 l/m 3,1 km/h (1 Bft) S-SW 202 6,5 C 11,2 C 4,8 km/h (1 Bft)
20.05.2013 09:20 10,6 C 76 % 1015,8 hPa 0,0 l/m 3,4 km/h (1 Bft) S 180 6,5 C 11,2 C 5,0 km/h (1 Bft)
20.05.2013 09:25 10,5 C 75 % 1015,9 hPa 0,0 l/m 3,5 km/h (1 Bft) S 180 6,3 C 11,1 C 3,2 km/h (1 Bft)
20.05.2013 09:30 10,2 C 73 % 1015,9 hPa 0,0 l/m 3,9 km/h (1 Bft) S 180 5,6 C 10,9 C 5,3 km/h (1 Bft)
20.05.2013 09:35 10,2 C 74 % 1015,9 hPa 0,0 l/m 3,5 km/h (1 Bft) N 360 5,8 C 10,8 C 2,1 km/h (1 Bft)
20.05.2013 09:40 9,8 C 69 % 1015,9 hPa 0,0 l/m 3,9 km/h (1 Bft) S 180 4,4 C 10,5 C 3,4 km/h (1 Bft)
20.05.2013 09:45 9,7 C 70 % 1016,2 hPa 0,0 l/m 4,0 km/h (1 Bft) S-SW 202 4,5 C 10,4 C 3,2 km/h (1 Bft)
20.05.2013 09:50 9,6 C 69 % 1016,2 hPa 0,0 l/m 4,5 km/h (1 Bft) O-SO 112 4,2 C 10,2 C 7,1 km/h (2 Bft)
20.05.2013 09:55 9,6 C 69 % 1016,2 hPa 0,0 l/m 4,7 km/h (1 Bft) O-SO 112 4,2 C 9,9 C 14,3 km/h (3 Bft)
20.05.2013 10:00 9,8 C 69 % 1016,2 hPa 0,0 l/m 3,7 km/h (1 Bft) S-SO 157 4,4 C 10,2 C 1,9 km/h (1 Bft)
20.05.2013 10:05 10,2 C 70 % 1016,1 hPa 0,0 l/m 3,4 km/h (1 Bft) S 180 5,0 C 10,4 C 4,3 km/h (1 Bft)
20.05.2013 10:10 10,6 C 68 % 1016,1 hPa 0,0 l/m 3,5 km/h (1 Bft) S 180 4,9 C 11,0 C 6,4 km/h (2 Bft)
20.05.2013 10:15 10,5 C 64 % 1016,1 hPa 0,0 l/m 4,7 km/h (1 Bft) S-SO 157 4,0 C 11,1 C 6,6 km/h (2 Bft)
20.05.2013 10:20 10,6 C 65 % 1016,1 hPa 0,0 l/m 6,1 km/h (2 Bft) S 180 4,3 C 10,7 C 9,0 km/h (2 Bft)
20.05.2013 10:25 10,5 C 64 % 1016,2 hPa 0,0 l/m 5,3 km/h (1 Bft) S-SO 157 4,0 C 10,8 C 4,8 km/h (1 Bft)
20.05.2013 10:30 10,5 C 66 % 1016,2 hPa 0,0 l/m 4,5 km/h (1 Bft) W-SW 247 4,4 C 11,0 C 4,8 km/h (1 Bft)
20.05.2013 10:35 10,4 C 66 % 1016,2 hPa 0,0 l/m 4,7 km/h (1 Bft) S 180 4,3 C 10,7 C 10,0 km/h (2 Bft)
20.05.2013 10:40 10,2 C 67 % 1016,2 hPa 0,0 l/m 5,0 km/h (1 Bft) N-NO 22 4,4 C 10,6 C 4,3 km/h (1 Bft)
20.05.2013 10:45 10,6 C 68 % 1016,1 hPa 0,0 l/m 3,9 km/h (1 Bft) S 180 4,9 C 10,7 C 5,0 km/h (1 Bft)
20.05.2013 10:50 10,7 C 66 % 1016,1 hPa 0,0 l/m 4,7 km/h (1 Bft) S-SW 202 4,6 C 10,8 C 5,8 km/h (2 Bft)
20.05.2013 10:55 10,6 C 66 % 1016,1 hPa 0,0 l/m 5,1 km/h (1 Bft) W-SW 247 4,5 C 10,6 C 4,5 km/h (1 Bft)
20.05.2013 11:00 10,6 C 68 % 1016,1 hPa 0,0 l/m 5,0 km/h (1 Bft) S 180 4,9 C 10,6 C 9,5 km/h (2 Bft)
20.05.2013 11:05 10,9 C 67 % 1016,2 hPa 0,0 l/m 5,3 km/h (1 Bft) S-SO 157 5,0 C 10,5 C 10,3 km/h (2 Bft)
20.05.2013 11:10 11,4 C 63 % 1016,2 hPa 0,0 l/m 6,4 km/h (2 Bft) S 180 4,6 C 10,6 C 8,5 km/h (2 Bft)
20.05.2013 11:15 13,8 C 59 % 1016,2 hPa 0,0 l/m 6,8 km/h (2 Bft) S 180 5,9 C 11,1 C 10,8 km/h (2 Bft)
20.05.2013 11:20 14,7 C 55 % 1016,2 hPa 0,0 l/m 5,1 km/h (1 Bft) W 270 5,8 C 14,6 C 2,9 km/h (1 Bft)
20.05.2013 11:25 13,2 C 55 % 1016,4 hPa 0,0 l/m 6,0 km/h (2 Bft) S 180 4,4 C 14,6 C 10,6 km/h (2 Bft)
20.05.2013 11:30 13,1 C 58 % 1016,4 hPa 0,0 l/m 7,1 km/h (2 Bft) S-SO 157 5,0 C 13,5 C 8,7 km/h (2 Bft)
20.05.2013 11:35 13,5 C 57 % 1016,4 hPa 0,0 l/m 6,9 km/h (2 Bft) S 180 5,2 C 13,8 C 6,8 km/h (2 Bft)
20.05.2013 11:40 13,3 C 56 % 1016,4 hPa 0,0 l/m 5,3 km/h (1 Bft) S 180 4,7 C 14,6 C 5,8 km/h (2 Bft)
20.05.2013 11:45 12,3 C 58 % 1016,4 hPa 0,0 l/m 5,5 km/h (1 Bft) S 180 4,3 C 14,1 C 6,4 km/h (2 Bft)
20.05.2013 11:50 11,8 C 59 % 1016,4 hPa 0,0 l/m 6,9 km/h (2 Bft) S-SW 202 4,1 C 12,5 C 14,2 km/h (3 Bft)
20.05.2013 11:55 11,7 C 59 % 1016,4 hPa 0,0 l/m 8,2 km/h (2 Bft) S 180 4,0 C 11,0 C 7,4 km/h (2 Bft)
20.05.2013 12:00 12,6 C 58 % 1016,4 hPa 0,0 l/m 8,5 km/h (2 Bft) S-SW 202 4,6 C 10,9 C 10,1 km/h (2 Bft)
20.05.2013 12:05 13,2 C 55 % 1016,1 hPa 0,0 l/m 7,1 km/h (2 Bft) S-SO 157 4,4 C 12,6 C 17,5 km/h (3 Bft)
20.05.2013 12:10 14,1 C 53 % 1016,1 hPa 0,0 l/m 6,9 km/h (2 Bft) S-SW 202 4,7 C 14,0 C 7,6 km/h (2 Bft)
20.05.2013 12:15 13,1 C 54 % 1016,1 hPa 0,0 l/m 7,6 km/h (2 Bft) S-SW 202 4,0 C 13,6 C 7,6 km/h (2 Bft)
20.05.2013 12:20 13,6 C 53 % 1016,1 hPa 0,0 l/m 7,4 km/h (2 Bft) W-SW 247 4,2 C 13,5 C 6,4 km/h (2 Bft)
20.05.2013 12:25 13,4 C 54 % 1016,1 hPa 0,0 l/m 6,9 km/h (2 Bft) O-SO 112 4,3 C 14,0 C 7,7 km/h (2 Bft)
20.05.2013 12:30 13,6 C 51 % 1016,1 hPa 0,0 l/m 5,6 km/h (1 Bft) S 180 3,7 C 14,9 C 13,2 km/h (3 Bft)
20.05.2013 12:35 12,9 C 53 % 1016,1 hPa 0,0 l/m 5,5 km/h (1 Bft) S 180 3,6 C 14,5 C 7,1 km/h (2 Bft)
20.05.2013 12:40 14,3 C 49 % 1016,1 hPa 0,0 l/m 5,8 km/h (2 Bft) S-SW 202 3,7 C 15,1 C 6,1 km/h (2 Bft)
20.05.2013 12:45 15,5 C 50 % 1016,4 hPa 0,0 l/m 5,0 km/h (1 Bft) W 270 5,1 C 15,8 C 8,5 km/h (2 Bft)
20.05.2013 12:50 16,1 C 46 % 1016,4 hPa 0,0 l/m 5,1 km/h (1 Bft) S 180 4,5 C 16,9 C 7,9 km/h (2 Bft)
20.05.2013 12:55 16,3 C 45 % 1016,4 hPa 0,0 l/m 5,6 km/h (1 Bft) S 180 4,3 C 17,1 C 8,0 km/h (2 Bft)
20.05.2013 13:00 15,7 C 47 % 1016,4 hPa 0,0 l/m 7,2 km/h (2 Bft) W-SW 247 4,4 C 17,0 C 10,5 km/h (2 Bft)
20.05.2013 13:05 15,6 C 49 % 1016,6 hPa 0,0 l/m 7,2 km/h (2 Bft) W 270 4,9 C 16,3 C 8,7 km/h (2 Bft)
20.05.2013 13:10 14,6 C 47 % 1016,6 hPa 0,0 l/m 6,4 km/h (2 Bft) W 270 3,4 C 16,5 C 7,7 km/h (2 Bft)
20.05.2013 13:15 14,8 C 50 % 1016,6 hPa 0,0 l/m 5,3 km/h (1 Bft) W 270 4,5 C 16,2 C 6,0 km/h (2 Bft)
20.05.2013 13:20 15,9 C 48 % 1016,6 hPa 0,0 l/m 4,2 km/h (1 Bft) O-NO 67 4,9 C 16,7 C 2,6 km/h (1 Bft)
20.05.2013 13:25 14,9 C 47 % 1016,4 hPa 0,0 l/m 3,4 km/h (1 Bft) O-NO 67 3,7 C 17,4 C 3,4 km/h (1 Bft)
20.05.2013 13:30 13,9 C 50 % 1016,4 hPa 0,0 l/m 1,9 km/h (1 Bft) S-SW 202 3,7 C 16,8 C 3,9 km/h (1 Bft)
20.05.2013 13:35 13,6 C 50 % 1016,4 hPa 0,0 l/m 2,6 km/h (1 Bft) SW 225 3,4 C 16,0 C 2,6 km/h (1 Bft)
20.05.2013 13:40 13,5 C 52 % 1016,4 hPa 0,0 l/m 1,6 km/h (1 Bft) S-SW 202 3,8 C 15,0 C 0,0 km/h (0 Bft)
20.05.2013 13:45 13,5 C 50 % 1016,1 hPa 0,0 l/m 1,0 km/h (0 Bft) S-SO 157 3,3 C 14,6 C 2,3 km/h (1 Bft)
20.05.2013 13:50 13,3 C 54 % 1016,1 hPa 0,0 l/m 1,3 km/h (1 Bft) W-NW 292 4,2 C 14,4 C 0,0 km/h (0 Bft)
20.05.2013 13:55 12,9 C 57 % 1016,1 hPa 0,0 l/m 1,4 km/h (1 Bft) S 180 4,6 C 14,1 C 2,1 km/h (1 Bft)
20.05.2013 14:00 11,8 C 57 % 1016,1 hPa 0,0 l/m 2,7 km/h (1 Bft) SO 135 3,6 C 12,9 C 3,4 km/h (1 Bft)
20.05.2013 14:05 11,3 C 58 % 1016,3 hPa 0,0 l/m 4,3 km/h (1 Bft) S-SO 157 3,3 C 12,2 C 9,5 km/h (2 Bft)
20.05.2013 14:10 11,4 C 59 % 1016,3 hPa 0,0 l/m 3,9 km/h (1 Bft) O 90 3,7 C 11,2 C 4,8 km/h (1 Bft)
20.05.2013 14:15 11,5 C 59 % 1016,3 hPa 0,0 l/m 3,2 km/h (1 Bft) O-SO 112 3,8 C 11,0 C 3,7 km/h (1 Bft)
20.05.2013 14:20 12,3 C 65 % 1016,3 hPa 0,0 l/m 3,2 km/h (1 Bft) S 180 5,9 C 11,2 C 0,0 km/h (0 Bft)
20.05.2013 14:25 13,4 C 70 % 1016,4 hPa 0,0 l/m 3,1 km/h (1 Bft) SW 225 8,0 C 12,3 C 3,2 km/h (1 Bft)
20.05.2013 14:30 14,6 C 68 % 1016,4 hPa 0,0 l/m 2,6 km/h (1 Bft) S-SW 202 8,8 C 14,3 C 3,4 km/h (1 Bft)
20.05.2013 14:35 14,0 C 65 % 1016,4 hPa 0,0 l/m 3,1 km/h (1 Bft) S-SO 157 7,5 C 15,0 C 3,5 km/h (1 Bft)
20.05.2013 14:40 13,0 C 65 % 1016,4 hPa 0,0 l/m 3,2 km/h (1 Bft) SW 225 6,6 C 15,1 C 3,1 km/h (1 Bft)
20.05.2013 14:45 13,0 C 68 % 1016,4 hPa 0,0 l/m 3,4 km/h (1 Bft) O-SO 112 7,2 C 14,9 C 4,0 km/h (1 Bft)
20.05.2013 14:50 13,0 C 72 % 1016,4 hPa 0,0 l/m 3,1 km/h (1 Bft) S-SO 157 8,1 C 14,5 C 5,1 km/h (1 Bft)
20.05.2013 14:55 13,1 C 71 % 1016,4 hPa 0,0 l/m 2,9 km/h (1 Bft) W-SW 247 8,0 C 14,5 C 2,6 km/h (1 Bft)
20.05.2013 15:00 13,1 C 65 % 1016,4 hPa 0,0 l/m 3,1 km/h (1 Bft) N-NW 337 6,7 C 14,8 C 6,1 km/h (2 Bft)
20.05.2013 15:05 12,1 C 68 % 1016,4 hPa 0,0 l/m 3,2 km/h (1 Bft) NO 45 6,4 C 14,1 C 6,4 km/h (2 Bft)
20.05.2013 15:10 11,7 C 68 % 1016,4 hPa 0,0 l/m 3,5 km/h (1 Bft) W 270 6,0 C 13,1 C 4,0 km/h (1 Bft)
20.05.2013 15:15 12,2 C 66 % 1016,4 hPa 0,0 l/m 3,4 km/h (1 Bft) N-NO 22 6,0 C 13,1 C 1,6 km/h (1 Bft)
20.05.2013 15:20 13,0 C 62 % 1016,4 hPa 0,0 l/m 2,7 km/h (1 Bft) N-NO 22 5,9 C 14,4 C 4,0 km/h (1 Bft)
20.05.2013 15:25 12,9 C 64 % 1016,3 hPa 0,0 l/m 2,7 km/h (1 Bft) S 180 6,3 C 14,6 C 0,0 km/h (0 Bft)
20.05.2013 15:30 13,3 C 59 % 1016,3 hPa 0,0 l/m 3,5 km/h (1 Bft) O-SO 112 5,5 C 14,9 C 5,1 km/h (1 Bft)
20.05.2013 15:35 12,9 C 59 % 1016,3 hPa 0,0 l/m 4,0 km/h (1 Bft) N 360 5,1 C 15,2 C 5,0 km/h (1 Bft)
20.05.2013 15:40 13,6 C 59 % 1016,3 hPa 0,0 l/m 3,9 km/h (1 Bft) W 270 5,7 C 15,2 C 3,4 km/h (1 Bft)
20.05.2013 15:45 13,7 C 59 % 1016,1 hPa 0,0 l/m 3,5 km/h (1 Bft) S-SW 202 5,8 C 15,3 C 3,1 km/h (1 Bft)
20.05.2013 15:50 12,9 C 59 % 1016,1 hPa 0,0 l/m 2,1 km/h (1 Bft) S-SW 202 5,1 C 14,8 C 2,4 km/h (1 Bft)
20.05.2013 15:55 12,2 C 62 % 1016,1 hPa 0,0 l/m 1,9 km/h (1 Bft) W-SW 247 5,1 C 14,0 C 2,7 km/h (1 Bft)
20.05.2013 16:00 11,4 C 63 % 1016,1 hPa 0,0 l/m 2,4 km/h (1 Bft) N-NW 337 4,6 C 12,9 C 2,9 km/h (1 Bft)
20.05.2013 16:05 11,1 C 64 % 1016,4 hPa 0,0 l/m 1,6 km/h (1 Bft) N-NO 22 4,6 C 12,3 C 0,0 km/h (0 Bft)
20.05.2013 16:10 10,6 C 69 % 1016,4 hPa 0,0 l/m 0,5 km/h (0 Bft) O 90 5,2 C 11,3 C 0,0 km/h (0 Bft)
20.05.2013 16:15 10,3 C 73 % 1016,4 hPa 0,0 l/m 1,1 km/h (1 Bft) O-SO 112 5,7 C 10,7 C 3,4 km/h (1 Bft)
20.05.2013 16:20 9,2 C 81 % 1016,4 hPa 0,0 l/m 2,9 km/h (1 Bft) NO 45 6,1 C 9,5 C 1,8 km/h (1 Bft)
20.05.2013 16:25 8,9 C 85 % 1016,5 hPa 0,7 l/m 3,7 km/h (1 Bft) NO 45 6,5 C 9,2 C 5,1 km/h (1 Bft)
20.05.2013 16:30 9,0 C 86 % 1016,5 hPa 0,0 l/m 3,5 km/h (1 Bft) O 90 6,8 C 9,2 C 4,2 km/h (1 Bft)
20.05.2013 16:35 9,7 C 87 % 1016,5 hPa 0,0 l/m 3,7 km/h (1 Bft) N 360 7,6 C 9,8 C 3,9 km/h (1 Bft)
20.05.2013 16:40 10,6 C 87 % 1016,5 hPa 0,0 l/m 1,9 km/h (1 Bft) N-NO 22 8,5 C 11,5 C 0,0 km/h (0 Bft)
20.05.2013 16:45 10,9 C 86 % 1016,1 hPa 0,0 l/m 1,8 km/h (1 Bft) N 360 8,7 C 12,5 C 2,7 km/h (1 Bft)
20.05.2013 16:50 11,8 C 83 % 1016,1 hPa 0,0 l/m 2,9 km/h (1 Bft) NO 45 9,0 C 14,4 C 6,4 km/h (2 Bft)
20.05.2013 16:55 11,5 C 81 % 1016,1 hPa 0,0 l/m 3,2 km/h (1 Bft) W-SW 247 8,4 C 15,4 C 2,9 km/h (1 Bft)
20.05.2013 17:00 11,5 C 79 % 1016,1 hPa 0,0 l/m 2,6 km/h (1 Bft) N-NO 22 8,0 C 15,0 C 4,0 km/h (1 Bft)
20.05.2013 17:05 11,6 C 81 % 1015,9 hPa 0,0 l/m 1,3 km/h (1 Bft) N-NW 337 8,5 C 14,9 C 1,6 km/h (1 Bft)
20.05.2013 17:10 11,9 C 82 % 1015,9 hPa 0,0 l/m 0,8 km/h (0 Bft) W 270 8,9 C 15,0 C 1,6 km/h (1 Bft)
20.05.2013 17:15 11,9 C 80 % 1015,9 hPa 0,0 l/m 0,8 km/h (0 Bft) W-NW 292 8,6 C 15,2 C 0,0 km/h (0 Bft)
20.05.2013 17:20 11,7 C 77 % 1015,9 hPa 0,0 l/m 1,3 km/h (1 Bft) N 360 7,8 C 15,5 C 6,1 km/h (2 Bft)
20.05.2013 17:25 11,5 C 79 % 1015,9 hPa 0,0 l/m 1,4 km/h (1 Bft) N 360 8,0 C 14,9 C 1,6 km/h (1 Bft)
20.05.2013 17:30 11,3 C 81 % 1015,9 hPa 0,0 l/m 1,4 km/h (1 Bft) O 90 8,2 C 14,3 C 1,6 km/h (1 Bft)
20.05.2013 17:35 11,3 C 81 % 1015,9 hPa 0,0 l/m 1,0 km/h (0 Bft) O-NO 67 8,2 C 13,8 C 0,0 km/h (0 Bft)
20.05.2013 17:40 11,1 C 78 % 1015,9 hPa 0,0 l/m 2,1 km/h (1 Bft) W-NW 292 7,4 C 13,4 C 2,4 km/h (1 Bft)
20.05.2013 17:45 11,2 C 77 % 1015,9 hPa 0,0 l/m 2,9 km/h (1 Bft) NW 315 7,3 C 13,1 C 4,8 km/h (1 Bft)
20.05.2013 17:50 11,1 C 78 % 1015,9 hPa 0,0 l/m 2,9 km/h (1 Bft) N 360 7,4 C 12,7 C 4,7 km/h (1 Bft)
20.05.2013 17:55 10,9 C 79 % 1015,9 hPa 0,0 l/m 2,9 km/h (1 Bft) N-NW 337 7,4 C 12,4 C 4,7 km/h (1 Bft)
20.05.2013 18:00 10,8 C 81 % 1015,9 hPa 0,0 l/m 3,1 km/h (1 Bft) W 270 7,7 C 11,8 C 4,5 km/h (1 Bft)
20.05.2013 18:05 10,9 C 84 % 1015,8 hPa 0,0 l/m 2,4 km/h (1 Bft) O-NO 67 8,3 C 11,7 C 0,0 km/h (0 Bft)
20.05.2013 18:10 10,9 C 85 % 1015,8 hPa 0,0 l/m 1,3 km/h (1 Bft) O-SO 112 8,5 C 11,7 C 0,0 km/h (0 Bft)
20.05.2013 18:15 11,0 C 85 % 1015,8 hPa 0,0 l/m 0,5 km/h (0 Bft) O 90 8,6 C 11,7 C 0,0 km/h (0 Bft)
20.05.2013 18:20 11,0 C 86 % 1015,8 hPa 0,0 l/m 0,0 km/h (0 Bft) O-NO 67 8,7 C 11,7 C 0,0 km/h (0 Bft)
20.05.2013 18:25 10,7 C 87 % 1015,7 hPa 0,0 l/m 0,0 km/h (0 Bft) NO 45 8,6 C 11,6 C 0,0 km/h (0 Bft)
20.05.2013 18:30 10,4 C 86 % 1015,7 hPa 0,0 l/m 0,0 km/h (0 Bft) O-SO 112 8,2 C 11,3 C 0,0 km/h (0 Bft)
20.05.2013 18:35 10,3 C 87 % 1015,7 hPa 0,0 l/m 0,0 km/h (0 Bft) W 270 8,2 C 11,1 C 0,0 km/h (0 Bft)
20.05.2013 18:40 10,0 C 86 % 1015,7 hPa 0,0 l/m 0,0 km/h (0 Bft) N-NO 22 7,8 C 10,7 C 0,0 km/h (0 Bft)
20.05.2013 18:45 9,8 C 87 % 1015,7 hPa 0,0 l/m 0,0 km/h (0 Bft) NO 45 7,7 C 10,5 C 0,0 km/h (0 Bft)
20.05.2013 18:50 9,5 C 86 % 1015,7 hPa 0,0 l/m 0,8 km/h (0 Bft) O-NO 67 7,3 C 10,0 C 2,6 km/h (1 Bft)
20.05.2013 18:55 9,1 C 87 % 1015,7 hPa 0,0 l/m 2,3 km/h (1 Bft) S 180 7,1 C 9,5 C 5,8 km/h (2 Bft)
20.05.2013 19:00 8,2 C 87 % 1015,7 hPa 0,0 l/m 4,3 km/h (1 Bft) S 180 6,2 C 8,3 C 4,8 km/h (1 Bft)
20.05.2013 19:05 7,7 C 89 % 1016,1 hPa 0,7 l/m 5,0 km/h (1 Bft) O 90 6,0 C 7,5 C 9,7 km/h (2 Bft)
20.05.2013 19:10 7,3 C 89 % 1016,1 hPa 0,7 l/m 4,8 km/h (1 Bft) NO 45 5,6 C 6,8 C 4,8 km/h (1 Bft)
20.05.2013 19:15 7,1 C 90 % 1016,1 hPa 0,7 l/m 4,0 km/h (1 Bft) S-SO 157 5,6 C 6,9 C 1,9 km/h (1 Bft)
20.05.2013 19:20 7,0 C 90 % 1016,1 hPa 0,7 l/m 2,9 km/h (1 Bft) NO 45 5,5 C 7,0 C 2,6 km/h (1 Bft)
20.05.2013 19:25 7,0 C 91 % 1016,2 hPa 0,0 l/m 2,4 km/h (1 Bft) O 90 5,6 C 7,0 C 2,3 km/h (1 Bft)
20.05.2013 19:30 7,1 C 92 % 1016,2 hPa 0,0 l/m 1,6 km/h (1 Bft) S 180 5,9 C 7,0 C 2,9 km/h (1 Bft)
20.05.2013 19:35 7,1 C 92 % 1016,2 hPa 0,0 l/m 1,6 km/h (1 Bft) S-SO 157 5,9 C 7,0 C 0,0 km/h (0 Bft)
20.05.2013 19:40 6,9 C 92 % 1016,2 hPa 0,7 l/m 2,3 km/h (1 Bft) O 90 5,7 C 7,0 C 3,4 km/h (1 Bft)
20.05.2013 19:45 6,8 C 93 % 1016,1 hPa 0,0 l/m 2,1 km/h (1 Bft) O-NO 67 5,7 C 6,8 C 0,0 km/h (0 Bft)
20.05.2013 19:50 6,7 C 93 % 1016,1 hPa 0,0 l/m 1,3 km/h (1 Bft) NO 45 5,6 C 6,7 C 0,0 km/h (0 Bft)
20.05.2013 19:55 6,7 C 93 % 1016,1 hPa 0,7 l/m 0,3 km/h (0 Bft) N 360 5,6 C 6,7 C 0,0 km/h (0 Bft)
20.05.2013 20:00 6,8 C 93 % 1016,1 hPa 0,0 l/m 0,0 km/h (0 Bft) SW 225 5,7 C 6,8 C 0,0 km/h (0 Bft)
20.05.2013 20:05 6,9 C 93 % 1016,5 hPa 0,0 l/m 0,0 km/h (0 Bft) S 180 5,8 C 6,9 C 0,0 km/h (0 Bft)
20.05.2013 20:10 6,9 C 94 % 1016,5 hPa 0,0 l/m 0,3 km/h (0 Bft) NO 45 6,0 C 7,0 C 0,0 km/h (0 Bft)
20.05.2013 20:15 6,8 C 94 % 1016,5 hPa 0,0 l/m 0,5 km/h (0 Bft) W 270 5,9 C 7,0 C 0,0 km/h (0 Bft)
20.05.2013 20:20 6,8 C 94 % 1016,5 hPa 0,0 l/m 0,6 km/h (0 Bft) N-NO 22 5,9 C 6,9 C 0,0 km/h (0 Bft)
20.05.2013 20:25 6,8 C 94 % 1016,4 hPa 0,0 l/m 0,5 km/h (0 Bft) SO 135 5,9 C 6,9 C 0,0 km/h (0 Bft)
20.05.2013 20:30 6,8 C 94 % 1016,4 hPa 0,0 l/m 0,0 km/h (0 Bft) N-NW 337 5,9 C 6,9 C 1,9 km/h (1 Bft)
20.05.2013 20:35 6,9 C 94 % 1016,4 hPa 0,0 l/m 0,0 km/h (0 Bft) N 360 6,0 C 6,9 C 0,0 km/h (0 Bft)
20.05.2013 20:40 6,8 C 94 % 1016,4 hPa 0,0 l/m 0,0 km/h (0 Bft) N 360 5,9 C 6,9 C 0,0 km/h (0 Bft)
20.05.2013 20:45 6,8 C 94 % 1016,6 hPa 0,0 l/m 0,0 km/h (0 Bft) O 90 5,9 C 6,9 C 0,0 km/h (0 Bft)
20.05.2013 20:50 6,6 C 94 % 1016,6 hPa 0,0 l/m 0,0 km/h (0 Bft) O-SO 112 5,7 C 6,8 C 0,0 km/h (0 Bft)
20.05.2013 20:55 6,6 C 94 % 1016,6 hPa 0,0 l/m 0,0 km/h (0 Bft) NO 45 5,7 C 6,7 C 0,0 km/h (0 Bft)
20.05.2013 21:00 6,5 C 94 % 1016,6 hPa 0,0 l/m 0,0 km/h (0 Bft) W 270 5,6 C 6,6 C 0,0 km/h (0 Bft)
20.05.2013 21:05 6,4 C 94 % 1016,2 hPa 0,0 l/m 0,2 km/h (0 Bft) NO 45 5,5 C 6,5 C 0,0 km/h (0 Bft)
20.05.2013 21:10 6,4 C 94 % 1016,2 hPa 0,0 l/m 0,2 km/h (0 Bft) NO 45 5,5 C 6,4 C 0,0 km/h (0 Bft)
20.05.2013 21:15 6,4 C 94 % 1016,2 hPa 0,0 l/m 0,3 km/h (0 Bft) NO 45 5,5 C 6,4 C 2,1 km/h (1 Bft)
20.05.2013 21:20 6,4 C 95 % 1016,2 hPa 0,0 l/m 0,6 km/h (0 Bft) W-NW 292 5,7 C 6,4 C 1,6 km/h (1 Bft)
20.05.2013 21:25 6,4 C 95 % 1016,4 hPa 0,0 l/m 0,6 km/h (0 Bft) O 90 5,7 C 6,4 C 0,0 km/h (0 Bft)
20.05.2013 21:30 6,3 C 95 % 1016,4 hPa 0,0 l/m 0,5 km/h (0 Bft) N-NO 22 5,6 C 6,4 C 2,9 km/h (1 Bft)
20.05.2013 21:35 6,4 C 95 % 1016,4 hPa 0,0 l/m 0,8 km/h (0 Bft) O-SO 112 5,7 C 6,4 C 3,5 km/h (1 Bft)
20.05.2013 21:40 6,2 C 95 % 1016,4 hPa 0,0 l/m 0,8 km/h (0 Bft) S 180 5,5 C 6,2 C 0,0 km/h (0 Bft)
20.05.2013 21:45 6,1 C 95 % 1016,5 hPa 0,7 l/m 0,5 km/h (0 Bft) N-NO 22 5,4 C 6,1 C 0,0 km/h (0 Bft)
20.05.2013 21:50 6,1 C 95 % 1016,5 hPa 0,0 l/m 1,3 km/h (1 Bft) S 180 5,4 C 6,0 C 2,1 km/h (1 Bft)
20.05.2013 21:55 6,0 C 95 % 1016,5 hPa 0,0 l/m 1,8 km/h (1 Bft) W 270 5,3 C 6,0 C 2,6 km/h (1 Bft)
20.05.2013 22:00 5,9 C 96 % 1016,5 hPa 0,0 l/m 1,0 km/h (0 Bft) O-NO 67 5,3 C 5,9 C 1,6 km/h (1 Bft)
20.05.2013 22:05 5,9 C 96 % 1016,8 hPa 0,0 l/m 0,6 km/h (0 Bft) S-SW 202 5,3 C 5,9 C 0,0 km/h (0 Bft)
20.05.2013 22:10 5,8 C 96 % 1016,8 hPa 0,0 l/m 0,5 km/h (0 Bft) S-SO 157 5,2 C 5,8 C 2,6 km/h (1 Bft)
20.05.2013 22:15 5,8 C 96 % 1016,8 hPa 0,0 l/m 0,8 km/h (0 Bft) S 180 5,2 C 5,8 C 0,0 km/h (0 Bft)
20.05.2013 22:20 5,8 C 96 % 1016,8 hPa 0,0 l/m 1,0 km/h (0 Bft) NO 45 5,2 C 5,8 C 0,0 km/h (0 Bft)
20.05.2013 22:25 5,8 C 96 % 1016,7 hPa 0,0 l/m 0,6 km/h (0 Bft) N 360 5,2 C 5,8 C 0,0 km/h (0 Bft)
20.05.2013 22:30 5,8 C 96 % 1016,7 hPa 0,0 l/m 0,3 km/h (0 Bft) O-NO 67 5,2 C 5,8 C 0,0 km/h (0 Bft)
20.05.2013 22:35 5,8 C 96 % 1016,7 hPa 0,0 l/m 0,2 km/h (0 Bft) O-SO 112 5,2 C 5,7 C 0,0 km/h (0 Bft)
20.05.2013 22:40 5,7 C 96 % 1016,7 hPa 0,0 l/m 0,0 km/h (0 Bft) SW 225 5,1 C 5,6 C 0,0 km/h (0 Bft)
20.05.2013 22:45 5,7 C 96 % 1016,8 hPa 0,0 l/m 0,0 km/h (0 Bft) S 180 5,1 C 5,6 C 0,0 km/h (0 Bft)
20.05.2013 22:50 5,6 C 96 % 1016,8 hPa 0,0 l/m 0,6 km/h (0 Bft) S-SW 202 5,0 C 5,6 C 1,6 km/h (1 Bft)
20.05.2013 22:55 5,6 C 96 % 1016,8 hPa 0,0 l/m 0,6 km/h (0 Bft) O 90 5,0 C 5,5 C 0,0 km/h (0 Bft)
20.05.2013 23:00 5,5 C 96 % 1016,8 hPa 0,0 l/m 0,8 km/h (0 Bft) S 180 4,9 C 5,4 C 2,9 km/h (1 Bft)
20.05.2013 23:05 5,5 C 96 % 1016,8 hPa 0,0 l/m 0,6 km/h (0 Bft) N-NO 22 4,9 C 5,4 C 0,0 km/h (0 Bft)
20.05.2013 23:10 5,4 C 96 % 1016,8 hPa 0,0 l/m 0,5 km/h (0 Bft) N-NW 337 4,8 C 5,4 C 0,0 km/h (0 Bft)
20.05.2013 23:15 5,4 C 96 % 1016,8 hPa 0,0 l/m 0,2 km/h (0 Bft) S-SW 202 4,8 C 5,3 C 0,0 km/h (0 Bft)
20.05.2013 23:20 5,5 C 96 % 1016,8 hPa 0,0 l/m 0,5 km/h (0 Bft) O 90 4,9 C 5,4 C 0,0 km/h (0 Bft)
20.05.2013 23:25 5,5 C 96 % 1016,6 hPa 0,0 l/m 0,5 km/h (0 Bft) N 360 4,9 C 5,4 C 0,0 km/h (0 Bft)
20.05.2013 23:30 5,5 C 96 % 1016,6 hPa 0,0 l/m 0,2 km/h (0 Bft) NW 315 4,9 C 5,4 C 0,0 km/h (0 Bft)
20.05.2013 23:35 5,4 C 96 % 1016,6 hPa 0,0 l/m 0,2 km/h (0 Bft) W-NW 292 4,8 C 5,4 C 0,0 km/h (0 Bft)
20.05.2013 23:40 5,3 C 96 % 1016,6 hPa 0,0 l/m 0,0 km/h (0 Bft) W-NW 292 4,7 C 5,3 C 0,0 km/h (0 Bft)
20.05.2013 23:45 5,3 C 96 % 1016,5 hPa 0,0 l/m 0,0 km/h (0 Bft) N-NO 22 4,7 C 5,3 C 0,0 km/h (0 Bft)
20.05.2013 23:50 5,3 C 96 % 1016,5 hPa 0,0 l/m 0,2 km/h (0 Bft) N-NO 22 4,7 C 5,2 C 1,8 km/h (1 Bft)
20.05.2013 23:55 5,3 C 96 % 1016,5 hPa 0,0 l/m 0,2 km/h (0 Bft) NO 45 4,7 C 5,2 C 0,0 km/h (0 Bft)
_ Min-Zeit 03:40 12:55 00:40 - 23:45 - - 03:40 03:40 23:55
Minimum _ 2,6 C 45 % 1013,6 hPa - 0,0 km/h (0 Bft) - - 1,9 C 2,0 C 0,0 km/h (0 Bft)
_ Max-Zeit 12:55 23:55 23:20 21:45 12:00 - - 07:20 13:25 12:05
Maximum _ 16,3 C 96 % 1016,8 hPa 0,7 l/m 8,5 km/h
S-SW (2 Bft)
- - 9,8 C 17,4 C 17,5 km/h
S-SO (3 Bft)
Durchschnitt _ 8,4 C 82 % 1015,6 hPa #5,5 l/m 2,3 km/h (1 Bft) S - 5,2 C 8,6 C 2,9 km/h (1 Bft)